Temperature
17 17 17 17 17 17 17 17 17 17 17 17 17 17 17 17 16 16 16 16 16 16 16 15 15 15 15 15 15 15 15 15 14 14 14 14 14 14 14 14 14 14 14
17 17 17 16 17 17 17 17 17 17 17 16 16 16 16 16 16 16 16 16 16 16 15 15 15 15 15 15 15 15 15 14 14 14 14 14 14 14 14 14 14 13 13
17 16 16 16 16 17 17 17 17 17 16 16 16 16 16 16 16 16 16 16 16 15 15 15 15 15 15 15 15 15 14 14 14 14 14 14 14 13 13 13 13 13 13
17 16 16 16 16 16 16 16 16 16 16 16 16 16 16 16 16 16 16 15 15 15 15 15 15 15 15 15 15 14 14 14 14 14 14 14 13 13 13 13 13 13 13
16 16 16 16 16 16 16 16 16 16 16 16 16 16 15 15 15 15 15 15 15 15 15 15 15 15 15 14 14 14 14 14 14 13 13 13 13 13 12 12 12 12 12
16 16 16 16 16 16 16 16 16 16 15 15 15 15 15 15 15 15 15 15 15 15 15 15 15 15 14 14 14 14 14 13 13 13 13 13 13 13 12 12 12 12 12
15 15 15 15 15 15 15 15 15 15 15 15 15 15 15 15 15 15 15 15 15 15 15 15 14 14 14 14 14 13 13 13 13 13 13 13 13 12 12 12 12 12 12
15 15 15 15 15 15 15 15 15 15 15 14 14 14 14 14 15 15 14 14 15 15 14 14 14 14 14 14 14 13 13 13 13 13 13 13 12 12 12 12 12 11 11
14 15 15 14 14 14 14 14 14 14 14 14 14 14 14 14 14 14 14 14 14 14 14 14 14 14 13 13 13 13 13 13 13 13 12 12 12 11 11 11 11 11 11
14 14 14 14 14 14 14 14 14 14 14 14 14 14 14 14 14 14 14 14 14 14 14 14 14 14 13 13 13 13 13 12 12 12 12 12 11 11 11 11 11 11 11
13 13 13 13 13 14 13 13 13 13 13 13 13 13 14 14 14 14 14 14 14 14 14 14 13 13 13 13 13 12 12 12 12 12 12 11 11 11 11 10 11 10 10
13 12 13 13 13 13 13 13 13 13 13 13 13 13 13 13 13 13 13 13 13 13 13 13 13 13 13 13 12 12 12 12 12 12 11 11 11 10 10 10 10 10 10
12 12 12 12 12 13 13 13 13 13 13 13 13 13 13 13 13 13 13 13 13 13 13 13 13 13 13 12 12 12 12 12 11 11 11 11 10 10 10 10 10 10 10
12 12 12 12 12 12 12 12 12 12 12 12 12 12 12 12 12 12 12 13 13 13 13 13 13 12 12 12 12 12 12 11 11 11 11 11 10 10 10 10 10 10 9
11 11 12 11 11 12 12 12 12 12 12 12 12 12 12 12 12 12 12 12 12 12 12 12 12 12 12 12 12 12 11 11 11 11 11 10 10 10 10 10 9 9 9
11 11 11 11 11 11 11 11 11 11 11 11 12 12 12 12 12 12 12 12 12 12 12 12 12 12 12 11 11 11 11 11 11 10 10 10 10 10 10 9 9 9 9
10 11 11 11 11 11 11 11 11 11 11 11 11 11 11 11 11 11 11 11 11 11 11 11 11 11 11 11 11 11 11 11 10 10 10 10 10 10 10 9 9 9 8
10 10 10 10 10 10 10 10 10 11 11 11 11 11 11 11 11 11 11 11 11 11 11 11 11 11 11 11 11 11 10 10 10 10 10 10 10 9 9 9 9 9 8
9 9 10 10 10 10 10 10 10 10 10 10 10 11 11 11 11 11 11 11 11 11 11 11 11 11 11 11 10 10 10 10 10 10 10 9 9 9 9 9 9 8 8
9 9 9 9 9 9 9 9 10 10 10 10 10 10 10 10 10 10 10 10 10 10 10 11 10 11 11 10 10 10 10 9 9 9 9 9 9 9 8 8 8 8 8
9 9 9 9 9 9 9 9 9 9 9 10 10 10 10 10 10 10 10 10 10 10 10 10 10 10 10 10 9 9 9 9 9 9 9 9 9 8 8 8 8 8 8
8 8 8 8 8 8 8 8 9 9 9 9 9 9 10 10 10 10 10 10 10 10 10 10 10 10 10 9 9 9 8 9 9 9 9 9 8 8 8 8 8 8 7
8 8 8 8 8 8 8 8 8 8 8 9 9 9 9 9 9 10 10 10 10 10 10 10 10 10 9 9 9 9 8 8 8 8 8 8 8 8 8 8 7 7 7
8 8 7 8 8 8 8 8 8 8 8 8 8 9 9 9 9 9 9 9 9 9 9 9 9 9 9 9 9 8 8 8 7 7 8 8 7 7 7 7 7 7 7
7 7 7 7 7 8 8 8 8 8 8 8 8 8 8 8 8 9 9 9 9 9 9 9 9 9 9 9 8 8 8 7 7 7 7 7 7 7 7 6 6 6 6
7 7 7 7 7 7 7 7 7 8 7 7 7 7 7 7 8 8 8 8 8 8 8 8 8 8 8 8 8 8 7 7 7 7 6 6 6 6 6 6 6 6 6
Wind_Speed
4 7 12 13 14 14 14 14 14 13 13 13 13 13 13 13 13 13 13 13 12 12 12 12 12 12 12 12 11 12 12 12 12 12 12 12 12 12 12 12 11 10 11
7 10 13 13 14 14 14 14 14 13 12 12 12 12 12 12 12 12 12 12 12 12 11 11 11 11 11 11 10 11 11 11 11 11 11 10 10 11 11 11 10 10 11
9 10 12 12 13 14 14 13 13 13 12 12 12 12 12 12 12 12 12 12 12 11 11 11 11 10 10 10 10 10 10 10 10 10 9 9 9 10 10 10 10 10 11
10 10 11 12 12 13 13 13 13 13 12 12 11 11 11 12 12 12 12 11 11 11 10 10 10 10 9 9 9 9 10 10 11 10 9 8 8 9 10 10 10 10 10
8 10 11 13 12 12 12 12 13 12 12 12 11 11 11 11 11 11 11 11 11 11 10 10 9 9 9 9 9 9 10 11 12 10 9 8 8 9 9 9 9 9 9
6 9 12 13 12 12 11 12 12 12 12 12 11 11 11 11 11 10 10 10 10 10 10 9 9 8 8 8 8 9 10 11 11 10 9 8 7 8 8 8 8 8 8
6 7 11 12 12 12 11 11 11 11 12 12 11 11 11 11 10 10 9 9 10 9 9 9 8 8 7 7 8 9 9 11 10 9 8 7 7 8 8 8 8 8 8
6 6 9 10 11 11 11 11 10 11 11 11 11 11 11 10 10 10 9 8 9 8 8 8 8 7 7 7 8 8 9 9 9 8 7 6 7 7 7 7 6 6 7
5 5 6 7 9 10 11 10 9 9 10 11 11 11 10 10 10 9 8 7 8 8 8 8 7 7 6 7 8 9 9 9 9 7 5 4 6 6 6 6 6 6 6
4 4 4 5 6 7 9 10 9 8 9 10 11 11 10 10 10 9 8 7 7 8 7 7 6 6 6 6 7 9 9 8 8 6 4 5 6 6 6 5 5 5 5
3 2 3 4 4 5 7 8 9 8 8 9 10 11 10 9 9 8 8 7 6 7 7 6 6 5 5 5 7 8 8 7 7 5 4 5 5 5 5 4 5 5 5
2 2 2 2 3 4 5 6 7 7 7 8 9 9 9 8 8 8 8 7 6 6 6 5 5 4 4 5 6 6 6 6 6 4 4 5 5 4 4 4 4 4 4
4 2 2 2 3 3 3 4 4 5 6 6 8 9 8 8 7 7 6 5 4 5 4 4 4 3 3 4 4 5 5 5 5 4 4 5 4 4 3 3 3 3 3
4 3 2 2 2 2 3 3 3 4 4 4 6 8 7 5 5 5 4 4 3 4 4 3 2 3 3 3 4 5 5 5 4 4 4 5 4 3 3 3 2 3 2
4 3 3 2 2 2 3 2 2 3 3 4 4 6 7 5 5 4 4 4 3 4 4 3 2 2 2 2 3 5 5 5 4 4 4 4 4 3 3 3 2 2 1
3 3 3 2 2 2 2 2 2 2 3 4 4 6 7 6 5 5 4 4 3 4 4 4 3 3 2 2 2 4 4 4 4 4 4 4 4 3 3 2 1 1 1
3 2 2 2 1 2 2 2 2 2 3 3 3 5 7 6 6 5 4 3 3 4 5 4 3 3 2 1 1 2 3 4 5 5 4 4 4 3 3 2 1 0 1
2 2 2 1 1 1 1 2 2 2 2 2 2 3 5 6 6 6 4 4 4 4 3 4 3 2 1 1 1 1 2 3 4 4 4 4 4 3 3 2 1 1 2
3 2 2 1 2 1 1 1 2 2 1 1 2 2 3 5 6 5 4 4 5 3 2 4 3 3 2 2 1 1 1 2 3 4 4 5 5 5 4 3 2 1 3
3 3 2 1 1 1 1 1 2 2 1 1 1 1 2 3 4 3 3 4 4 3 2 4 4 2 2 3 2 1 1 1 2 3 3 4 4 5 5 4 2 1 3
2 3 3 2 1 1 1 1 1 0 0 0 1 0 2 2 3 3 2 4 4 4 4 5 4 3 2 2 2 1 2 1 2 2 3 3 3 4 4 4 3 2 2
3 3 4 3 2 1 1 1 1 1 1 1 1 1 1 2 2 2 2 3 4 4 4 4 4 3 2 2 3 2 0 2 1 1 2 2 3 3 3 4 3 2 3
3 3 3 4 3 2 1 0 2 2 0 1 1 1 1 1 2 2 2 2 3 5 5 5 6 5 4 2 2 3 3 3 1 2 1 1 1 2 2 2 3 2 2
3 3 3 3 3 2 2 2 3 2 2 2 1 1 2 0 1 1 1 2 2 3 4 5 5 4 5 4 1 1 1 2 2 1 2 1 1 1 2 1 1 1 2
2 2 2 2 2 2 2 3 4 2 1 1 0 0 1 1 0 1 0 1 1 2 3 4 4 4 4 4 3 2 1 0 1 2 2 2 2 1 1 1 1 1 2
1 1 2 2 2 1 1 2 3 3 2 2 1 0 1 1 0 1 1 0 1 2 3 3 3 4 4 4 3 2 3 2 3 2 3 2 2 2 1 1 0 1 2
Wind_Direction
158 152 149 144 138 132 127 124 120 116 112 110 108 106 106 109 110 108 109 111 108 105 104 102 99 98 97 95 93 91 91 90 88 85 84 83 84 84 82 80 76 70 73
149 149 148 144 140 135 130 126 123 119 116 114 112 110 109 109 112 112 110 109 109 107 107 104 101 99 98 98 97 96 92 91 89 85 82 78 81 85 83 80 79 77 74
132 141 146 142 139 136 132 129 126 123 120 118 115 114 113 112 111 113 110 108 108 108 107 105 102 99 100 99 99 97 94 92 91 88 82 75 77 83 84 82 78 76 74
133 138 142 136 135 136 134 132 130 128 126 122 120 117 116 115 111 112 111 109 108 106 105 104 104 102 101 99 97 95 92 92 94 91 80 77 78 84 84 83 80 77 75
127 136 142 138 134 134 134 134 134 133 130 128 125 122 120 116 115 110 113 110 106 104 102 102 103 102 99 95 93 92 92 93 96 89 81 79 78 83 82 82 81 79 76
125 134 143 139 137 132 132 132 137 137 134 132 130 127 123 120 116 114 110 113 111 109 106 104 101 101 100 97 92 88 96 100 94 84 79 80 80 84 84 81 80 79 76
129 133 143 142 141 138 133 134 135 137 139 137 133 130 127 124 119 117 110 116 115 113 112 111 107 103 102 102 96 94 100 102 94 84 75 77 86 89 86 82 79 79 78
127 132 141 142 143 141 139 136 138 139 144 142 136 133 131 128 126 122 121 117 119 118 116 113 108 107 103 104 102 103 109 104 97 88 79 79 92 91 89 84 79 78 77
114 119 129 140 143 146 142 141 137 142 145 145 141 137 135 133 131 126 131 122 126 126 122 117 112 106 106 104 103 106 110 108 98 90 86 88 100 97 90 84 79 80 76
94 105 112 118 130 141 146 144 142 138 143 145 143 139 136 135 135 132 136 128 134 134 128 122 116 111 102 99 108 110 108 108 101 95 90 102 106 101 95 89 82 78 76
85 85 113 114 116 127 145 149 144 144 145 144 144 140 136 134 134 134 138 134 133 137 134 130 123 117 103 96 108 113 105 110 109 100 103 112 110 103 101 96 87 83 79
126 107 101 109 127 123 136 142 146 148 146 146 145 144 140 138 138 138 140 140 138 140 136 133 126 117 98 94 109 114 107 112 116 113 124 128 121 116 108 102 98 87 80
173 156 147 129 131 127 125 139 142 145 145 146 149 150 147 141 139 136 132 136 138 138 128 125 113 106 104 112 119 124 123 115 123 127 138 138 135 131 120 109 103 96 86
173 168 161 147 138 138 130 142 153 148 147 149 163 157 153 148 146 144 138 138 136 144 135 128 121 117 108 127 139 140 140 131 131 136 145 149 149 148 136 120 108 99 85
172 175 173 158 160 156 142 144 139 156 155 158 162 165 160 162 166 157 152 154 154 156 150 149 149 139 123 124 139 147 146 146 146 144 145 152 158 157 149 137 114 88 73
181 181 182 176 159 156 158 157 147 148 155 152 159 170 166 161 160 158 160 162 171 174 167 160 162 155 143 134 136 147 152 155 153 147 146 152 161 162 155 148 128 90 45
195 178 178 181 145 150 155 161 145 150 150 153 165 173 166 160 160 156 160 164 182 174 163 148 141 130 134 131 140 152 151 158 159 161 161 155 156 161 163 170 159 146 354
183 169 168 181 161 156 144 153 131 139 134 147 152 166 168 161 162 162 162 173 175 163 158 156 151 144 152 156 167 190 163 159 166 171 171 170 162 161 171 189 205 258 309
194 177 176 163 168 165 117 121 131 118 117 135 144 151 160 158 163 165 171 176 169 155 161 167 161 161 166 176 188 189 198 188 176 173 170 178 179 178 178 190 200 265 307
202 182 174 160 163 153 113 103 102 89 71 67 87 146 145 146 160 157 170 170 159 157 174 167 161 161 170 174 165 170 247 227 190 182 186 182 188 192 191 192 193 255 300
187 176 168 150 139 160 163 159 133 172 304 351 12 104 128 134 148 145 166 168 164 173 186 171 159 155 149 136 114 33 335 286 212 205 190 180 192 203 201 200 200 228 276
198 183 172 175 168 187 227 235 179 168 263 260 299 319 146 146 147 134 158 175 176 174 177 170 156 158 160 149 145 143 300 323 307 246 212 201 204 207 211 209 200 219 265
194 188 194 190 183 180 160 87 118 109 54 353 317 317 304 168 147 133 162 166 177 182 184 181 175 168 176 186 164 157 165 213 275 306 258 228 217 218 216 206 198 222 266
198 185 188 187 180 159 144 188 172 174 195 250 255 272 312 200 136 139 151 159 162 169 183 191 184 179 170 181 184 187 182 169 177 268 308 312 279 247 243 213 207 228 294
186 166 159 152 139 155 168 196 183 174 179 163 109 80 330 333 75 109 127 135 142 156 173 188 181 175 179 182 180 170 153 159 190 199 249 300 324 288 256 232 199 258 318
98 126 115 119 101 126 179 183 162 155 147 136 118 191 290 295 330 15 25 106 160 155 168 180 189 183 185 182 183 182 177 179 188 199 220 241 266 293 298 284 222 360 332
Height
1516 1518 1520 1521 1523 1524 1525 1526 1527 1528 1529 1529 1530 1530 1531 1532 1532 1533 1533 1533 1534 1534 1534 1535 1535 1535 1535 1535 1535 1535 1535 1535 1534 1534 1534 1534 1534 1534 1533 1533 1533 1532 1532
1515 1517 1519 1521 1522 1523 1524 1526 1527 1527 1528 1529 1530 1530 1531 1532 1533 1533 1533 1534 1534 1534 1535 1535 1535 1535 1535 1535 1535 1535 1535 1535 1535 1535 1534 1534 1534 1534 1534 1533 1533 1533 1532
1515 1517 1519 1520 1522 1523 1524 1525 1526 1527 1528 1529 1530 1530 1531 1532 1532 1533 1533 1534 1534 1534 1534 1535 1535 1535 1535 1535 1535 1535 1535 1535 1535 1535 1535 1535 1534 1534 1534 1534 1533 1533 1533
1515 1517 1518 1520 1522 1523 1524 1525 1526 1527 1528 1529 1529 1530 1531 1531 1532 1532 1533 1533 1534 1534 1534 1535 1535 1535 1535 1535 1535 1535 1535 1535 1535 1535 1535 1535 1535 1534 1534 1534 1533 1533 1533
1515 1516 1518 1520 1521 1522 1523 1525 1526 1526 1527 1528 1529 1530 1530 1531 1531 1532 1532 1533 1533 1534 1534 1534 1534 1535 1535 1535 1535 1535 1535 1535 1535 1535 1535 1535 1535 1534 1534 1534 1533 1533 1532
1515 1516 1518 1519 1521 1522 1523 1524 1525 1526 1527 1528 1528 1529 1530 1530 1531 1531 1531 1532 1533 1533 1534 1534 1534 1534 1535 1535 1535 1535 1535 1535 1535 1535 1535 1535 1534 1534 1534 1533 1533 1533 1532
1514 1516 1517 1519 1520 1521 1522 1523 1524 1525 1526 1527 1528 1528 1529 1529 1530 1530 1531 1532 1532 1533 1533 1533 1534 1534 1534 1535 1535 1535 1535 1535 1535 1535 1535 1534 1534 1534 1533 1533 1533 1532 1532
1514 1515 1517 1518 1519 1520 1521 1522 1524 1524 1525 1526 1527 1527 1528 1528 1529 1529 1530 1531 1531 1532 1532 1533 1533 1533 1534 1534 1534 1534 1534 1534 1534 1534 1534 1534 1534 1533 1533 1532 1532 1532 1531
1514 1515 1516 1517 1518 1519 1520 1521 1522 1523 1524 1525 1526 1526 1527 1527 1528 1528 1529 1529 1530 1531 1531 1532 1532 1533 1533 1533 1533 1533 1534 1534 1534 1534 1534 1533 1533 1533 1532 1532 1531 1531 1530
1513 1514 1515 1516 1517 1518 1519 1520 1521 1522 1523 1524 1524 1525 1526 1526 1527 1527 1528 1528 1529 1530 1530 1531 1531 1532 1532 1532 1532 1533 1533 1533 1533 1533 1533 1533 1533 1532 1532 1531 1531 1530 1530
1512 1513 1514 1514 1515 1516 1517 1518 1519 1520 1521 1522 1523 1524 1524 1525 1525 1526 1526 1527 1528 1529 1529 1530 1530 1530 1531 1531 1531 1532 1532 1532 1533 1533 1532 1532 1532 1532 1531 1531 1530 1530 1529
1509 1511 1512 1513 1514 1515 1515 1516 1517 1518 1519 1520 1521 1522 1522 1523 1524 1525 1525 1526 1527 1527 1528 1528 1529 1529 1530 1530 1530 1531 1531 1531 1532 1532 1531 1531 1531 1531 1530 1530 1529 1529 1528
1508 1509 1510 1511 1512 1512 1513 1514 1515 1516 1517 1517 1518 1519 1520 1521 1522 1523 1523 1525 1525 1526 1526 1527 1527 1527 1528 1528 1529 1529 1530 1530 1530 1530 1530 1530 1530 1530 1529 1529 1528 1527 1526
1505 1506 1507 1508 1510 1511 1511 1511 1512 1513 1514 1515 1516 1517 1518 1519 1520 1520 1521 1522 1523 1524 1524 1525 1525 1526 1526 1527 1527 1528 1528 1528 1529 1529 1529 1529 1529 1528 1528 1527 1527 1526 1525
1503 1504 1505 1506 1507 1508 1509 1509 1510 1511 1511 1512 1513 1515 1515 1516 1517 1518 1519 1520 1521 1521 1522 1523 1524 1524 1524 1525 1525 1526 1526 1527 1527 1527 1527 1527 1527 1527 1526 1526 1525 1524 1523
1500 1501 1502 1503 1504 1505 1506 1506 1507 1508 1509 1510 1510 1512 1513 1514 1515 1516 1517 1518 1519 1519 1520 1521 1522 1522 1523 1523 1523 1524 1524 1525 1525 1525 1525 1525 1525 1525 1525 1524 1524 1523 1522
1497 1498 1499 1500 1502 1502 1503 1503 1504 1505 1506 1507 1508 1509 1510 1511 1512 1513 1515 1516 1517 1517 1518 1519 1519 1520 1520 1521 1521 1522 1522 1523 1523 1523 1523 1523 1523 1523 1522 1522 1521 1521 1520
1494 1495 1496 1497 1498 1499 1500 1501 1501 1502 1504 1504 1505 1506 1507 1508 1509 1511 1512 1513 1514 1515 1516 1516 1517 1517 1518 1518 1519 1520 1520 1520 1521 1521 1521 1521 1521 1521 1520 1520 1519 1518 1517
1491 1492 1493 1494 1495 1496 1497 1498 1498 1499 1500 1501 1502 1503 1504 1505 1507 1508 1508 1510 1511 1511 1512 1513 1514 1515 1515 1516 1516 1517 1518 1518 1518 1519 1519 1519 1518 1518 1518 1517 1517 1516 1515
1488 1489 1489 1491 1492 1492 1494 1495 1495 1495 1496 1498 1499 1500 1501 1502 1503 1504 1505 1507 1508 1509 1509 1510 1511 1512 1513 1513 1514 1514 1515 1516 1516 1516 1516 1516 1516 1515 1515 1515 1514 1513 1512
1484 1485 1485 1486 1488 1489 1490 1490 1490 1491 1492 1494 1495 1496 1497 1499 1500 1501 1502 1503 1504 1506 1506 1507 1507 1509 1509 1510 1511 1512 1512 1513 1513 1513 1513 1513 1512 1512 1512 1512 1511 1510 1510
1481 1481 1482 1483 1485 1485 1487 1488 1488 1488 1489 1491 1492 1493 1494 1495 1496 1497 1498 1499 1501 1502 1503 1503 1504 1505 1506 1507 1508 1509 1509 1510 1509 1510 1510 1510 1510 1509 1509 1509 1508 1507 1507
1477 1478 1479 1480 1482 1482 1484 1484 1486 1487 1488 1488 1488 1489 1490 1491 1492 1493 1495 1496 1497 1498 1498 1499 1501 1502 1503 1504 1505 1506 1506 1506 1506 1507 1506 1507 1507 1507 1507 1506 1505 1505 1504
1474 1475 1476 1477 1478 1479 1480 1481 1481 1482 1483 1484 1485 1485 1486 1487 1489 1490 1491 1492 1493 1494 1495 1496 1497 1499 1500 1501 1502 1503 1504 1504 1504 1503 1504 1504 1504 1504 1504 1503 1502 1501 1501
1472 1472 1473 1474 1475 1476 1478 1479 1479 1479 1480 1482 1482 1483 1483 1483 1485 1486 1488 1489 1490 1491 1492 1493 1494 1496 1497 1498 1498 1499 1500 1501 1502 1501 1500 1501 1501 1501 1501 1500 1499 1498 1497
1470 1470 1471 1472 1473 1474 1475 1475 1475 1476 1477 1478 1478 1479 1480 1481 1481 1483 1484 1485 1487 1488 1489 1491 1491 1492 1494 1495 1495 1496 1497 1498 1498 1499 1498 1497 1497 1498 1497 1497 1496 1495 1494